Location: Observatoire
(46.1952°N, 5.3391°E)
Time: 23:13:44
(UTC+01:00)

Courier 1B Rocket - Pass Details

Date: 19 February 2026
Orbit: 920 x 1201 km, 28.2° (Epoch: 11 March)

Event Time Altitude Azimuth Distance (km) Brightness Sun altitude
Rises 19:42:21 0° 221° (SW) 3,540 8.5 -16.6°
Reaches altitude 10° 19:46:34 10° 194° (SSW) 2,610 7.4 -17.3°
Maximum altitude 19:49:10 13° 169° (S) 2,429 6.9 -17.8°
Enters shadow 19:51:32 11° 146° (SSE) 2,609 6.9 -18.2°
Drops below altitude 10° 19:51:48 10° 144° (SE) 2,649 - -18.2°
Sets 19:56:10 0° 118° (ESE) 3,645 - -19.0°
